• In Uzbekistan
  • List of Countries
  • For 7 days
  • Water Temperature
  • Satellite Maps
  • Weather Map
  • Weather Widgets
  • user-avatar
    Login

    Hourly Weather Buri

    Today, 23 October, Monday

    Time Temperature Precipitation Wind Pressure Humidity
    00:00 +19°C° 0.1 mm 2 mps 710 mmHg 93%
    01:00 +19°C° 0.1 mm 2 mps 710 mmHg 94%
    02:00 +19°C° 0.1 mm 2 mps 710 mmHg 94%
    03:00 +19°C° 0.1 mm 3 mps 710 mmHg 94%
    04:00 +18°C° 0 mm 3 mps 710 mmHg 93%
    05:00 +18°C° 0 mm 3 mps 710 mmHg 93%
    06:00 +18°C° 0 mm 3 mps 711 mmHg 92%
    07:00 +18°C° 0 mm 4 mps 711 mmHg 88%
    08:00 +19°C° 0 mm 4 mps 712 mmHg 85%
    09:00 +19°C° 0 mm 4 mps 712 mmHg 81%
    10:00 +20°C° 0 mm 4 mps 712 mmHg 78%
    11:00 +21°C° 0 mm 5 mps 712 mmHg 75%
    12:00 +21°C° 0 mm 5 mps 712 mmHg 71%
    13:00 +22°C° 0 mm 5 mps 712 mmHg 70%
    14:00 +22°C° 0 mm 5 mps 711 mmHg 68%
    15:00 +22°C° 0 mm 5 mps 711 mmHg 67%
    16:00 +21°C° 0 mm 5 mps 711 mmHg 71%
    17:00 +20°C° 0 mm 5 mps 711 mmHg 75%
    18:00 +17°C° 0 mm 5 mps 711 mmHg 79%
    19:00 +18°C° 0 mm 4 mps 711 mmHg 81%
    20:00 +17°C° 0 mm 4 mps 711 mmHg 84%
    21:00 +15°C° 0 mm 4 mps 712 mmHg 86%
    22:00 +15°C° 0 mm 4 mps 711 mmHg 87%
    23:00 +15°C° 0 mm 4 mps 711 mmHg 87%

    Tomorrow, 24 October, Tuesday

    Time Temperature Precipitation Wind Pressure Humidity
    00:00 +15°C° 0 mm 4 mps 711 mmHg 88%
    01:00 +15°C° 0 mm 4 mps 711 mmHg 88%
    02:00 +16°C° 0 mm 3 mps 711 mmHg 88%
    03:00 +16°C° 0 mm 3 mps 710 mmHg 87%
    04:00 +16°C° 0 mm 3 mps 710 mmHg 88%
    05:00 +16°C° 0 mm 3 mps 710 mmHg 89%
    06:00 +16°C° 0 mm 3 mps 710 mmHg 89%
    07:00 +18°C° 0 mm 3 mps 711 mmHg 83%
    08:00 +20°C° 0 mm 3 mps 711 mmHg 77%
    09:00 +22°C° 0 mm 4 mps 712 mmHg 71%
    10:00 +24°C° 0 mm 3 mps 712 mmHg 67%
    11:00 +25°C° 0 mm 3 mps 712 mmHg 64%
    12:00 +27°C° 0 mm 3 mps 712 mmHg 60%
    13:00 +27°C° 0 mm 3 mps 711 mmHg 61%
    14:00 +27°C° 0 mm 3 mps 711 mmHg 61%
    15:00 +27°C° 0 mm 3 mps 710 mmHg 61%
    16:00 +26°C° 0 mm 3 mps 710 mmHg 67%
    17:00 +23°C° 0 mm 4 mps 710 mmHg 73%
    18:00 +22°C° 0 mm 4 mps 710 mmHg 78%
    19:00 +21°C° 0 mm 4 mps 710 mmHg 81%
    20:00 +20°C° 0 mm 4 mps 711 mmHg 85%
    21:00 +19°C° 0 mm 4 mps 711 mmHg 88%
    22:00 +18°C° 0 mm 4 mps 711 mmHg 88%
    23:00 +18°C° 0 mm 3 mps 711 mmHg 89%

    Day after tomorrow, 25 October, Wednesday

    Time Temperature Precipitation Wind Pressure Humidity
    00:00 +18°C° 0 mm 3 mps 711 mmHg 89%
    01:00 +18°C° 0 mm 3 mps 711 mmHg 89%
    02:00 +18°C° 0 mm 3 mps 710 mmHg 90%
    03:00 +18°C° 0 mm 3 mps 710 mmHg 91%
    04:00 +18°C° 0 mm 3 mps 710 mmHg 91%
    05:00 +18°C° 0 mm 3 mps 710 mmHg 91%
    06:00 +18°C° 0 mm 3 mps 710 mmHg 90%
    07:00 +20°C° 0 mm 3 mps 711 mmHg 84%
    08:00 +21°C° 0 mm 3 mps 711 mmHg 78%
    09:00 +24°C° 0 mm 3 mps 711 mmHg 72%
    10:00 +25°C° 0.4 mm 3 mps 711 mmHg 69%
    11:00 +26°C° 0.4 mm 3 mps 711 mmHg 66%
    12:00 +28°C° 0.4 mm 2 mps 711 mmHg 63%
    13:00 +27°C° 1.7 mm 3 mps 710 mmHg 69%
    14:00 +26°C° 1.7 mm 3 mps 710 mmHg 75%
    15:00 +25°C° 1.7 mm 4 mps 709 mmHg 80%
    16:00 +24°C° 0.1 mm 3 mps 709 mmHg 83%
    17:00 +22°C° 0.1 mm 3 mps 709 mmHg 85%
    18:00 +21°C° 0.1 mm 2 mps 709 mmHg 88%
    19:00 +21°C° 0.1 mm 3 mps 709 mmHg 90%
    20:00 +20°C° 0.1 mm 3 mps 709 mmHg 92%
    21:00 +20°C° 0.1 mm 3 mps 709 mmHg 93%
    22:00 +20°C° 0.2 mm 3 mps 709 mmHg 94%
    23:00 +19°C° 0.2 mm 2 mps 709 mmHg 95%

    26 October, Thursday

    Time Temperature Precipitation Wind Pressure Humidity
    00:00 +19°C° 0.2 mm 2 mps 709 mmHg 96%
    01:00 +19°C° 0.2 mm 2 mps 708 mmHg 95%
    02:00 +19°C° 0.2 mm 2 mps 708 mmHg 95%
    03:00 +19°C° 0.2 mm 2 mps 707 mmHg 95%
    04:00 +19°C° 0.5 mm 2 mps 707 mmHg 95%
    05:00 +19°C° 0.5 mm 2 mps 708 mmHg 95%
    06:00 +20°C° 0.5 mm 1 mps 708 mmHg 96%
    07:00 +20°C° 0.1 mm 2 mps 709 mmHg 91%
    08:00 +22°C° 0.1 mm 3 mps 709 mmHg 85%
    09:00 +24°C° 0.1 mm 3 mps 709 mmHg 80%
    10:00 +26°C° 0 mm 4 mps 709 mmHg 70%
    11:00 +28°C° 0 mm 5 mps 709 mmHg 60%
    12:00 +30°C° 0 mm 5 mps 709 mmHg 51%
    13:00 +29°C° 0.1 mm 5 mps 708 mmHg 55%
    14:00 +28°C° 0.1 mm 5 mps 708 mmHg 60%
    15:00 +27°C° 0.1 mm 4 mps 707 mmHg 64%
    16:00 +26°C° 0.1 mm 4 mps 707 mmHg 69%
    17:00 +25°C° 0.1 mm 3 mps 707 mmHg 74%
    18:00 +24°C° 0.1 mm 2 mps 707 mmHg 79%
    19:00 +23°C° 0 mm 2 mps 707 mmHg 80%
    20:00 +23°C° 0 mm 2 mps 707 mmHg 82%
    21:00 +21°C° 0 mm 2 mps 708 mmHg 83%
    22:00 +22°C° 0.1 mm 1 mps 707 mmHg 84%
    23:00 +22°C° 0.1 mm 1 mps 707 mmHg 84%

    27 October, Friday

    Time Temperature Precipitation Wind Pressure Humidity
    00:00 +22°C° 0.1 mm 1 mps 707 mmHg 85%
    01:00 +21°C° 0 mm 1 mps 706 mmHg 86%
    02:00 +21°C° 0 mm 1 mps 705 mmHg 88%
    03:00 +20°C° 0 mm 1 mps 705 mmHg 89%
    04:00 +20°C° 0 mm 1 mps 705 mmHg 91%
    05:00 +20°C° 0 mm 1 mps 705 mmHg 92%
    06:00 +20°C° 0 mm 1 mps 706 mmHg 93%
    07:00 +22°C° 0 mm 1 mps 706 mmHg 84%
    08:00 +24°C° 0 mm 2 mps 706 mmHg 76%
    09:00 +27°C° 0 mm 2 mps 707 mmHg 67%
    10:00 +28°C° 0.3 mm 3 mps 707 mmHg 64%
    11:00 +29°C° 0.3 mm 4 mps 706 mmHg 61%
    12:00 +30°C° 0.3 mm 5 mps 706 mmHg 58%
    13:00 +30°C° 0.9 mm 4 mps 705 mmHg 57%
    14:00 +30°C° 0.9 mm 4 mps 704 mmHg 56%
    15:00 +30°C° 0.9 mm 3 mps 704 mmHg 55%
    16:00 +29°C° 0.3 mm 4 mps 704 mmHg 61%
    17:00 +27°C° 0.3 mm 4 mps 704 mmHg 67%
    18:00 +26°C° 0.3 mm 4 mps 704 mmHg 74%
    19:00 +25°C° 0.1 mm 4 mps 704 mmHg 77%
    20:00 +23°C° 0.1 mm 4 mps 704 mmHg 80%
    21:00 +22°C° 0.1 mm 3 mps 704 mmHg 83%
    22:00 +21°C° 0 mm 2 mps 704 mmHg 86%
    23:00 +22°C° 0 mm 1 mps 703 mmHg 88%

    28 October, Saturday

    Time Temperature Precipitation Wind Pressure Humidity
    00:00 +19°C° 0 mm 0 mps 703 mmHg 90%
    01:00 +21°C° 0 mm 1 mps 703 mmHg 90%
    02:00 +20°C° 0 mm 2 mps 702 mmHg 89%
    03:00 +20°C° 0 mm 2 mps 702 mmHg 88%
    04:00 +20°C° 0 mm 2 mps 702 mmHg 88%
    05:00 +20°C° 0 mm 2 mps 702 mmHg 88%
    06:00 +21°C° 0 mm 1 mps 702 mmHg 88%
    07:00 +22°C° 0 mm 3 mps 703 mmHg 82%
    08:00 +23°C° 0 mm 4 mps 704 mmHg 76%
    09:00 +26°C° 0 mm 5 mps 704 mmHg 69%
    10:00 +28°C° 0 mm 5 mps 704 mmHg 65%
    11:00 +29°C° 0 mm 6 mps 704 mmHg 60%
    12:00 +32°C° 0 mm 6 mps 703 mmHg 56%
    13:00 +30°C° 0.3 mm 6 mps 703 mmHg 57%
    14:00 +30°C° 0.3 mm 6 mps 702 mmHg 59%
    15:00 +30°C° 0.3 mm 6 mps 702 mmHg 60%
    16:00 +29°C° 0 mm 5 mps 702 mmHg 65%
    17:00 +28°C° 0 mm 4 mps 702 mmHg 69%
    18:00 +27°C° 0 mm 4 mps 702 mmHg 74%
    19:00 +26°C° 0 mm 3 mps 702 mmHg 77%
    20:00 +25°C° 0 mm 2 mps 702 mmHg 81%
    21:00 +24°C° 0 mm 2 mps 702 mmHg 84%
    22:00 +24°C° 0.1 mm 1 mps 703 mmHg 85%
    23:00 +23°C° 0.1 mm 1 mps 703 mmHg 87%

    29 October, Sunday

    Time Temperature Precipitation Wind Pressure Humidity
    00:00 +23°C° 0.1 mm 1 mps 703 mmHg 89%
    01:00 +22°C° 0.8 mm 1 mps 703 mmHg 90%
    02:00 +22°C° 0.8 mm 1 mps 703 mmHg 91%
    03:00 +22°C° 0.8 mm 1 mps 703 mmHg 92%
    04:00 +22°C° 0 mm 1 mps 703 mmHg 92%
    05:00 +20°C° 0 mm 0 mps 703 mmHg 92%
    06:00 +20°C° 0 mm 0 mps 704 mmHg 93%
    07:00 +23°C° 0.6 mm 1 mps 704 mmHg 89%
    08:00 +24°C° 0.6 mm 1 mps 704 mmHg 86%
    09:00 +25°C° 0.6 mm 1 mps 705 mmHg 83%
    10:00 +26°C° 1.6 mm 2 mps 705 mmHg 77%
    11:00 +27°C° 1.6 mm 2 mps 704 mmHg 71%
    12:00 +29°C° 1.6 mm 3 mps 704 mmHg 65%
    13:00 +28°C° 0.7 mm 3 mps 704 mmHg 67%
    14:00 +28°C° 0.7 mm 3 mps 703 mmHg 69%
    15:00 +28°C° 0.7 mm 3 mps 703 mmHg 71%
    16:00 +26°C° 2.5 mm 3 mps 703 mmHg 78%
    17:00 +24°C° 2.5 mm 3 mps 703 mmHg 86%
    18:00 +22°C° 2.5 mm 3 mps 703 mmHg 93%
    19:00 +23°C° 0.5 mm 2 mps 703 mmHg 94%
    20:00 +22°C° 0.5 mm 1 mps 704 mmHg 95%
    21:00 +22°C° 0.5 mm 1 mps 704 mmHg 96%
    22:00 +22°C° 0.2 mm 1 mps 703 mmHg 96%
    23:00 +22°C° 0.2 mm 1 mps 703 mmHg 97%
    Show more